QPF
0.00 0.00 0.00 0.00 0.00 0.00 0.00 0.00 0.00 0.00 0.00 0.00 0.00 0.00 0.00 0.00 0.00 0.00 0.00 0.00 0.00 0.00 0.00 0.00 0.00 0.00 0.00 0.00 0.00 0.00 0.00 0.01 0.01 0.01 0.01 0.01 0.01 0.01 0.01 0.01 0.01 0.02 0.02 0.03
0.00 0.00 0.00 0.00 0.00 0.00 0.00 0.00 0.00 0.00 0.00 0.00 0.00 0.00 0.00 0.00 0.00 0.00 0.00 0.00 0.00 0.00 0.00 0.01 0.01 0.01 0.01 0.01 0.00 0.01 0.01 0.01 0.00 0.00 0.00 0.01 0.01 0.01 0.02 0.02 0.02 0.02 0.02 0.03
0.00 0.00 0.00 0.00 0.00 0.00 0.00 0.00 0.00 0.00 0.00 0.00 0.00 0.00 0.00 0.00 0.00 0.00 0.00 0.00 0.00 0.00 0.01 0.02 0.02 0.02 0.02 0.02 0.02 0.03 0.02 0.01 0.01 0.01 0.01 0.01 0.01 0.01 0.02 0.02 0.02 0.02 0.02 0.02
0.00 0.00 0.00 0.00 0.00 0.00 0.00 0.00 0.00 0.00 0.00 0.00 0.00 0.00 0.00 0.00 0.00 0.00 0.00 0.00 0.00 0.01 0.01 0.04 0.03 0.03 0.03 0.05 0.09 0.10 0.08 0.03 0.01 0.01 0.01 0.01 0.01 0.02 0.02 0.02 0.03 0.03 0.02 0.01
0.00 0.00 0.00 0.00 0.00 0.00 0.00 0.00 0.00 0.00 0.00 0.00 0.00 0.00 0.00 0.00 0.00 0.00 0.00 0.00 0.00 0.00 0.01 0.03 0.04 0.04 0.04 0.03 0.05 0.07 0.07 0.04 0.02 0.01 0.02 0.02 0.01 0.02 0.02 0.02 0.02 0.02 0.02 0.01
0.00 0.00 0.00 0.00 0.00 0.00 0.00 0.01 0.00 0.00 0.00 0.00 0.00 0.00 0.00 0.00 0.00 0.00 0.00 0.00 0.01 0.00 0.01 0.02 0.04 0.04 0.03 0.02 0.02 0.02 0.03 0.04 0.04 0.03 0.03 0.02 0.03 0.03 0.02 0.02 0.02 0.02 0.01 0.01
0.00 0.00 0.00 0.00 0.00 0.00 0.01 0.01 0.00 0.00 0.00 0.00 0.00 0.00 0.01 0.00 0.01 0.01 0.00 0.00 0.00 0.01 0.01 0.03 0.05 0.05 0.03 0.02 0.02 0.03 0.03 0.03 0.03 0.04 0.03 0.02 0.03 0.03 0.02 0.03 0.02 0.02 0.01 0.01
0.01 0.00 0.00 0.00 0.00 0.00 0.00 0.00 0.00 0.00 0.00 0.00 0.00 0.01 0.01 0.00 0.01 0.00 0.00 0.00 0.00 0.01 0.01 0.02 0.04 0.05 0.04 0.03 0.02 0.02 0.02 0.03 0.03 0.03 0.03 0.03 0.03 0.03 0.02 0.02 0.02 0.01 0.01 0.01
0.01 0.01 0.00 0.00 0.01 0.01 0.00 0.00 0.00 0.00 0.00 0.00 0.00 0.01 0.00 0.00 0.01 0.01 0.00 0.01 0.01 0.01 0.02 0.02 0.03 0.05 0.06 0.07 0.04 0.02 0.02 0.01 0.02 0.02 0.02 0.02 0.02 0.02 0.02 0.01 0.01 0.01 0.01 0.01
0.02 0.01 0.01 0.00 0.01 0.01 0.01 0.00 0.00 0.00 0.00 0.00 0.01 0.01 0.01 0.01 0.01 0.01 0.01 0.01 0.01 0.01 0.01 0.02 0.03 0.05 0.04 0.07 0.12 0.08 0.04 0.02 0.02 0.02 0.01 0.01 0.01 0.01 0.01 0.01 0.01 0.01 0.00 0.00
0.02 0.02 0.01 0.01 0.01 0.01 0.01 0.00 0.00 0.00 0.00 0.01 0.01 0.02 0.02 0.02 0.01 0.02 0.02 0.01 0.02 0.02 0.02 0.02 0.03 0.06 0.05 0.04 0.08 0.13 0.10 0.04 0.03 0.02 0.02 0.02 0.02 0.01 0.01 0.01 0.01 0.00 0.00 0.00
0.02 0.01 0.01 0.01 0.01 0.01 0.01 0.01 0.00 0.00 0.01 0.01 0.02 0.03 0.04 0.04 0.04 0.05 0.05 0.05 0.05 0.04 0.03 0.03 0.04 0.04 0.04 0.05 0.04 0.05 0.05 0.04 0.04 0.03 0.02 0.02 0.02 0.01 0.01 0.01 0.01 0.00 0.00 0.00
0.01 0.00 0.01 0.01 0.01 0.01 0.01 0.01 0.01 0.01 0.01 0.02 0.02 0.03 0.05 0.05 0.05 0.06 0.08 0.08 0.07 0.06 0.05 0.05 0.05 0.05 0.04 0.04 0.04 0.03 0.04 0.03 0.04 0.04 0.03 0.02 0.02 0.01 0.01 0.01 0.01 0.01 0.00 0.00
0.00 0.00 0.01 0.01 0.02 0.01 0.01 0.01 0.01 0.01 0.01 0.02 0.03 0.04 0.04 0.05 0.05 0.08 0.08 0.07 0.05 0.04 0.05 0.05 0.06 0.06 0.06 0.05 0.05 0.05 0.06 0.05 0.05 0.04 0.04 0.03 0.02 0.02 0.01 0.01 0.01 0.01 0.01 0.01
0.01 0.01 0.01 0.01 0.01 0.01 0.01 0.01 0.01 0.02 0.02 0.02 0.02 0.04 0.05 0.07 0.08 0.07 0.06 0.04 0.04 0.03 0.04 0.06 0.09 0.09 0.09 0.07 0.05 0.05 0.07 0.07 0.06 0.05 0.04 0.03 0.02 0.02 0.02 0.02 0.02 0.02 0.02 0.02
0.01 0.01 0.01 0.02 0.02 0.02 0.02 0.02 0.02 0.02 0.02 0.03 0.02 0.02 0.04 0.08 0.09 0.09 0.07 0.06 0.05 0.05 0.06 0.05 0.06 0.07 0.07 0.08 0.09 0.07 0.07 0.08 0.06 0.05 0.05 0.03 0.03 0.03 0.03 0.04 0.04 0.04 0.04 0.03
0.01 0.02 0.02 0.02 0.01 0.02 0.02 0.02 0.02 0.03 0.04 0.04 0.04 0.04 0.06 0.09 0.10 0.09 0.07 0.06 0.06 0.06 0.05 0.04 0.04 0.04 0.04 0.05 0.06 0.07 0.07 0.07 0.06 0.05 0.04 0.04 0.05 0.07 0.07 0.07 0.06 0.05 0.05 0.04
0.01 0.02 0.01 0.01 0.01 0.02 0.02 0.02 0.02 0.04 0.05 0.06 0.05 0.06 0.09 0.13 0.10 0.08 0.06 0.05 0.04 0.03 0.03 0.03 0.03 0.03 0.03 0.04 0.05 0.05 0.05 0.06 0.06 0.06 0.07 0.09 0.10 0.10 0.09 0.07 0.06 0.05 0.04 0.02
0.02 0.02 0.01 0.01 0.02 0.02 0.02 0.02 0.03 0.04 0.05 0.06 0.06 0.08 0.11 0.12 0.10 0.08 0.05 0.03 0.03 0.02 0.02 0.02 0.03 0.03 0.03 0.04 0.04 0.05 0.06 0.07 0.08 0.09 0.10 0.10 0.09 0.08 0.07 0.06 0.04 0.03 0.01 0.01
0.02 0.03 0.02 0.02 0.03 0.02 0.02 0.03 0.03 0.04 0.06 0.07 0.07 0.07 0.09 0.11 0.10 0.08 0.06 0.04 0.03 0.03 0.02 0.02 0.02 0.02 0.03 0.04 0.04 0.04 0.06 0.06 0.07 0.07 0.07 0.07 0.06 0.05 0.03 0.02 0.02 0.02 0.02 0.02
0.02 0.04 0.06 0.06 0.05 0.04 0.04 0.04 0.04 0.05 0.08 0.10 0.09 0.07 0.07 0.09 0.08 0.06 0.05 0.04 0.04 0.03 0.02 0.02 0.02 0.02 0.03 0.05 0.06 0.06 0.06 0.05 0.05 0.05 0.06 0.05 0.04 0.02 0.02 0.02 0.02 0.02 0.03 0.03
0.07 0.08 0.08 0.08 0.06 0.05 0.06 0.07 0.06 0.06 0.09 0.14 0.14 0.10 0.08 0.07 0.07 0.07 0.07 0.06 0.05 0.05 0.03 0.02 0.02 0.03 0.06 0.06 0.05 0.06 0.05 0.05 0.04 0.03 0.03 0.02 0.01 0.01 0.01 0.02 0.02 0.02 0.02 0.01
0.14 0.12 0.09 0.08 0.06 0.05 0.05 0.05 0.05 0.06 0.09 0.12 0.13 0.12 0.09 0.07 0.06 0.07 0.08 0.06 0.05 0.05 0.05 0.04 0.05 0.06 0.06 0.05 0.04 0.05 0.05 0.04 0.03 0.02 0.02 0.01 0.01 0.01 0.01 0.01 0.01 0.01 0.01 0.01
0.13 0.11 0.10 0.08 0.06 0.05 0.05 0.05 0.07 0.07 0.09 0.12 0.15 0.14 0.11 0.08 0.08 0.08 0.08 0.07 0.05 0.04 0.04 0.05 0.07 0.06 0.04 0.03 0.04 0.04 0.04 0.03 0.02 0.01 0.01 0.01 0.00 0.00 0.00 0.00 0.00 0.00 0.01 0.00
0.10 0.08 0.07 0.07 0.07 0.06 0.05 0.04 0.05 0.06 0.07 0.08 0.08 0.09 0.09 0.09 0.08 0.06 0.05 0.04 0.03 0.03 0.03 0.05 0.06 0.05 0.04 0.04 0.04 0.04 0.04 0.03 0.02 0.01 0.01 0.01 0.00 0.00 0.00 0.00 0.00 0.00 0.00 0.00
0.08 0.06 0.06 0.07 0.06 0.06 0.05 0.04 0.03 0.04 0.06 0.07 0.06 0.07 0.07 0.06 0.05 0.03 0.02 0.02 0.03 0.03 0.02 0.03 0.03 0.03 0.03 0.04 0.05 0.05 0.04 0.04 0.03 0.02 0.01 0.01 0.01 0.00 0.00 0.00 0.00 0.00 0.00 0.00
0.07 0.05 0.05 0.05 0.05 0.04 0.04 0.04 0.03 0.03 0.04 0.06 0.07 0.08 0.07 0.05 0.05 0.04 0.02 0.02 0.03 0.03 0.03 0.02 0.02 0.02 0.03 0.04 0.04 0.04 0.04 0.03 0.02 0.01 0.00 0.00 0.00 0.00 0.00 0.00 0.00 0.00 0.00 0.00
MSLP
1006.56 1006.84 1007.05 1007.23 1007.38 1007.51 1007.63 1007.73 1007.78 1007.77 1007.65 1007.44 1007.10 1006.68 1006.21 1005.72 1005.28 1004.92 1004.68 1004.59 1004.64 1004.83 1005.12 1005.48 1005.89 1006.31 1006.73 1007.13 1007.53 1007.93 1008.35 1008.79 1009.26 1009.76 1010.29 1010.83 1011.35 1011.84 1012.28 1012.65 1012.94 1013.15 1013.27 1013.33
1006.78 1006.97 1007.06 1007.06 1007.01 1006.94 1006.88 1006.83 1006.80 1006.77 1006.71 1006.59 1006.40 1006.14 1005.82 1005.47 1005.12 1004.82 1004.61 1004.51 1004.55 1004.71 1005.00 1005.38 1005.82 1006.29 1006.77 1007.24 1007.70 1008.13 1008.57 1009.01 1009.46 1009.95 1010.46 1010.98 1011.52 1012.03 1012.51 1012.93 1013.27 1013.53 1013.70 1013.79
1006.99 1007.12 1007.10 1006.95 1006.73 1006.48 1006.24 1006.06 1005.94 1005.87 1005.83 1005.79 1005.72 1005.59 1005.41 1005.17 1004.92 1004.68 1004.50 1004.40 1004.43 1004.59 1004.88 1005.27 1005.75 1006.28 1006.82 1007.36 1007.88 1008.36 1008.83 1009.28 1009.73 1010.20 1010.69 1011.19 1011.72 1012.24 1012.73 1013.18 1013.56 1013.86 1014.06 1014.18
1007.07 1007.16 1007.05 1006.80 1006.44 1006.04 1005.68 1005.38 1005.18 1005.08 1005.05 1005.07 1005.09 1005.08 1005.01 1004.89 1004.73 1004.55 1004.41 1004.33 1004.35 1004.50 1004.78 1005.18 1005.68 1006.25 1006.85 1007.45 1008.03 1008.57 1009.07 1009.54 1010.00 1010.46 1010.93 1011.42 1011.92 1012.43 1012.93 1013.38 1013.78 1014.10 1014.33 1014.48
1006.93 1006.98 1006.82 1006.49 1006.05 1005.57 1005.11 1004.75 1004.50 1004.38 1004.38 1004.45 1004.56 1004.66 1004.70 1004.69 1004.62 1004.51 1004.40 1004.34 1004.36 1004.49 1004.75 1005.14 1005.64 1006.22 1006.85 1007.50 1008.12 1008.71 1009.25 1009.75 1010.23 1010.69 1011.16 1011.63 1012.12 1012.61 1013.09 1013.55 1013.95 1014.28 1014.52 1014.69
1006.51 1006.53 1006.35 1005.99 1005.52 1005.00 1004.52 1004.14 1003.89 1003.80 1003.84 1003.98 1004.18 1004.38 1004.54 1004.63 1004.65 1004.61 1004.55 1004.50 1004.51 1004.61 1004.84 1005.19 1005.66 1006.23 1006.85 1007.51 1008.16 1008.78 1009.37 1009.90 1010.40 1010.88 1011.35 1011.82 1012.30 1012.77 1013.24 1013.67 1014.06 1014.39 1014.65 1014.83
1005.84 1005.84 1005.65 1005.31 1004.86 1004.38 1003.93 1003.59 1003.39 1003.35 1003.46 1003.68 1003.98 1004.28 1004.55 1004.75 1004.86 1004.89 1004.87 1004.83 1004.83 1004.90 1005.07 1005.36 1005.77 1006.29 1006.89 1007.53 1008.18 1008.82 1009.43 1010.00 1010.53 1011.03 1011.52 1011.99 1012.45 1012.91 1013.36 1013.77 1014.15 1014.47 1014.73 1014.92
1004.98 1004.97 1004.81 1004.53 1004.15 1003.75 1003.40 1003.15 1003.03 1003.08 1003.28 1003.60 1003.99 1004.40 1004.77 1005.06 1005.26 1005.35 1005.37 1005.34 1005.32 1005.34 1005.45 1005.67 1006.00 1006.45 1006.99 1007.59 1008.22 1008.86 1009.48 1010.07 1010.63 1011.15 1011.65 1012.12 1012.58 1013.02 1013.45 1013.85 1014.21 1014.52 1014.78 1014.99
1004.05 1004.06 1003.96 1003.77 1003.51 1003.25 1003.02 1002.90 1002.90 1003.06 1003.35 1003.76 1004.24 1004.73 1005.18 1005.55 1005.81 1005.96 1006.01 1005.99 1005.95 1005.94 1005.98 1006.11 1006.36 1006.72 1007.18 1007.72 1008.31 1008.92 1009.54 1010.13 1010.70 1011.24 1011.74 1012.21 1012.66 1013.09 1013.50 1013.88 1014.22 1014.53 1014.80 1015.04
1003.19 1003.24 1003.23 1003.17 1003.06 1002.95 1002.89 1002.91 1003.04 1003.30 1003.68 1004.16 1004.69 1005.24 1005.74 1006.16 1006.47 1006.65 1006.73 1006.72 1006.67 1006.61 1006.60 1006.66 1006.82 1007.09 1007.46 1007.93 1008.46 1009.03 1009.61 1010.19 1010.75 1011.28 1011.78 1012.24 1012.68 1013.09 1013.47 1013.84 1014.17 1014.49 1014.78 1015.05
1002.52 1002.64 1002.74 1002.82 1002.88 1002.95 1003.04 1003.20 1003.45 1003.79 1004.23 1004.75 1005.31 1005.87 1006.39 1006.83 1007.15 1007.36 1007.45 1007.45 1007.39 1007.31 1007.26 1007.26 1007.35 1007.53 1007.82 1008.21 1008.66 1009.17 1009.70 1010.24 1010.76 1011.26 1011.74 1012.17 1012.59 1012.98 1013.35 1013.70 1014.04 1014.37 1014.70 1015.01
1002.11 1002.32 1002.55 1002.78 1003.00 1003.23 1003.47 1003.75 1004.08 1004.48 1004.95 1005.47 1006.01 1006.55 1007.05 1007.47 1007.79 1008.00 1008.10 1008.11 1008.05 1007.97 1007.89 1007.85 1007.89 1008.01 1008.22 1008.52 1008.90 1009.32 1009.78 1010.25 1010.72 1011.17 1011.59 1012.00 1012.38 1012.75 1013.11 1013.46 1013.82 1014.19 1014.56 1014.93
1001.96 1002.27 1002.62 1002.99 1003.36 1003.72 1004.08 1004.45 1004.84 1005.26 1005.72 1006.20 1006.70 1007.18 1007.63 1008.02 1008.31 1008.52 1008.63 1008.65 1008.61 1008.53 1008.45 1008.40 1008.40 1008.47 1008.61 1008.84 1009.13 1009.47 1009.84 1010.22 1010.61 1010.99 1011.36 1011.72 1012.07 1012.42 1012.77 1013.15 1013.54 1013.96 1014.39 1014.83
1002.04 1002.44 1002.90 1003.38 1003.85 1004.31 1004.75 1005.17 1005.59 1006.00 1006.42 1006.86 1007.29 1007.71 1008.10 1008.43 1008.71 1008.90 1009.01 1009.05 1009.04 1008.98 1008.92 1008.86 1008.85 1008.88 1008.97 1009.12 1009.33 1009.58 1009.86 1010.15 1010.46 1010.76 1011.07 1011.38 1011.69 1012.04 1012.40 1012.81 1013.25 1013.73 1014.23 1014.75
1002.25 1002.73 1003.26 1003.81 1004.36 1004.87 1005.35 1005.80 1006.21 1006.60 1006.98 1007.36 1007.73 1008.09 1008.42 1008.72 1008.97 1009.16 1009.29 1009.35 1009.36 1009.34 1009.30 1009.26 1009.23 1009.24 1009.29 1009.38 1009.51 1009.67 1009.86 1010.07 1010.29 1010.52 1010.77 1011.04 1011.34 1011.68 1012.07 1012.52 1013.01 1013.56 1014.14 1014.74
1002.53 1003.05 1003.62 1004.20 1004.77 1005.30 1005.79 1006.24 1006.64 1007.01 1007.35 1007.69 1008.02 1008.34 1008.64 1008.91 1009.16 1009.35 1009.50 1009.59 1009.64 1009.64 1009.63 1009.60 1009.57 1009.56 1009.57 1009.61 1009.68 1009.77 1009.89 1010.02 1010.18 1010.35 1010.56 1010.80 1011.10 1011.45 1011.87 1012.35 1012.90 1013.51 1014.16 1014.83
1002.81 1003.33 1003.89 1004.47 1005.03 1005.55 1006.03 1006.46 1006.85 1007.21 1007.54 1007.87 1008.18 1008.49 1008.79 1009.07 1009.33 1009.54 1009.71 1009.83 1009.91 1009.94 1009.95 1009.93 1009.90 1009.87 1009.86 1009.86 1009.88 1009.92 1009.98 1010.06 1010.17 1010.32 1010.50 1010.74 1011.03 1011.40 1011.85 1012.37 1012.97 1013.62 1014.31 1015.01
1003.04 1003.53 1004.06 1004.60 1005.13 1005.62 1006.08 1006.50 1006.89 1007.25 1007.60 1007.95 1008.29 1008.63 1008.95 1009.26 1009.54 1009.79 1009.99 1010.13 1010.23 1010.28 1010.30 1010.28 1010.25 1010.21 1010.18 1010.15 1010.14 1010.15 1010.18 1010.25 1010.34 1010.47 1010.65 1010.89 1011.20 1011.58 1012.05 1012.59 1013.20 1013.86 1014.56 1015.26
1003.21 1003.67 1004.15 1004.63 1005.11 1005.57 1006.01 1006.42 1006.83 1007.22 1007.61 1008.01 1008.40 1008.79 1009.17 1009.52 1009.84 1010.12 1010.34 1010.51 1010.62 1010.67 1010.69 1010.67 1010.63 1010.58 1010.54 1010.50 1010.48 1010.49 1010.52 1010.58 1010.68 1010.82 1011.01 1011.26 1011.58 1011.97 1012.43 1012.97 1013.56 1014.20 1014.86 1015.52
1003.36 1003.77 1004.19 1004.62 1005.05 1005.48 1005.90 1006.33 1006.76 1007.19 1007.64 1008.10 1008.56 1009.01 1009.45 1009.85 1010.21 1010.51 1010.75 1010.92 1011.04 1011.09 1011.10 1011.07 1011.03 1010.98 1010.93 1010.90 1010.89 1010.91 1010.95 1011.03 1011.15 1011.32 1011.53 1011.79 1012.11 1012.49 1012.92 1013.42 1013.96 1014.53 1015.11 1015.69
1003.49 1003.86 1004.24 1004.62 1005.01 1005.42 1005.84 1006.27 1006.74 1007.22 1007.72 1008.24 1008.77 1009.27 1009.76 1010.20 1010.58 1010.90 1011.15 1011.32 1011.42 1011.47 1011.47 1011.44 1011.39 1011.34 1011.31 1011.29 1011.31 1011.35 1011.43 1011.54 1011.69 1011.88 1012.10 1012.36 1012.67 1013.02 1013.41 1013.84 1014.29 1014.77 1015.24 1015.71
1003.65 1003.98 1004.33 1004.68 1005.04 1005.43 1005.85 1006.30 1006.78 1007.30 1007.85 1008.41 1008.97 1009.52 1010.03 1010.49 1010.88 1011.20 1011.44 1011.61 1011.70 1011.74 1011.73 1011.70 1011.66 1011.63 1011.61 1011.63 1011.67 1011.75 1011.86 1012.01 1012.18 1012.39 1012.62 1012.87 1013.15 1013.46 1013.78 1014.13 1014.48 1014.84 1015.20 1015.54
1003.82 1004.14 1004.46 1004.79 1005.14 1005.51 1005.92 1006.38 1006.87 1007.40 1007.96 1008.54 1009.11 1009.67 1010.18 1010.63 1011.02 1011.33 1011.56 1011.71 1011.79 1011.83 1011.83 1011.81 1011.79 1011.78 1011.80 1011.84 1011.92 1012.04 1012.18 1012.35 1012.54 1012.75 1012.98 1013.21 1013.46 1013.71 1013.97 1014.22 1014.48 1014.73 1014.98 1015.21
1004.01 1004.32 1004.63 1004.94 1005.28 1005.64 1006.04 1006.48 1006.96 1007.48 1008.02 1008.58 1009.13 1009.66 1010.14 1010.57 1010.93 1011.21 1011.43 1011.58 1011.66 1011.71 1011.73 1011.74 1011.75 1011.78 1011.83 1011.91 1012.02 1012.16 1012.33 1012.51 1012.71 1012.91 1013.12 1013.33 1013.53 1013.73 1013.93 1014.11 1014.29 1014.46 1014.62 1014.78
1004.21 1004.51 1004.81 1005.11 1005.43 1005.77 1006.14 1006.56 1007.00 1007.48 1007.98 1008.49 1008.99 1009.46 1009.90 1010.28 1010.60 1010.87 1011.07 1011.22 1011.32 1011.39 1011.45 1011.50 1011.55 1011.62 1011.71 1011.83 1011.96 1012.12 1012.29 1012.47 1012.66 1012.85 1013.03 1013.21 1013.38 1013.54 1013.69 1013.84 1013.97 1014.10 1014.22 1014.33
1004.40 1004.69 1004.98 1005.27 1005.56 1005.88 1006.22 1006.59 1006.99 1007.40 1007.84 1008.27 1008.70 1009.10 1009.48 1009.81 1010.10 1010.34 1010.54 1010.70 1010.83 1010.94 1011.04 1011.14 1011.25 1011.36 1011.49 1011.63 1011.78 1011.94 1012.11 1012.28 1012.44 1012.60 1012.76 1012.91 1013.06 1013.20 1013.34 1013.47 1013.61 1013.73 1013.86 1013.99
1004.57 1004.85 1005.13 1005.40 1005.68 1005.96 1006.27 1006.58 1006.92 1007.27 1007.63 1007.98 1008.33 1008.66 1008.97 1009.26 1009.51 1009.74 1009.94 1010.13 1010.29 1010.45 1010.61 1010.76 1010.91 1011.07 1011.23 1011.38 1011.54 1011.69 1011.84 1011.98 1012.12 1012.26 1012.39 1012.53 1012.67 1012.81 1012.97 1013.13 1013.29 1013.46 1013.63 1013.81
Thickness
5769 5779 5782 5780 5781 5785 5785 5792 5790 5798 5805 5818 5823 5824 5827 5828 5828 5827 5824 5823 5821 5817 5815 5813 5810 5806 5803 5799 5794 5790 5785 5780 5775 5772 5768 5764 5760 5757 5754 5751 5748 5744 5741 5738
5752 5765 5769 5770 5778 5781 5784 5790 5793 5797 5802 5822 5824 5824 5821 5822 5822 5821 5821 5820 5819 5816 5812 5809 5807 5803 5800 5795 5790 5785 5780 5776 5772 5768 5764 5760 5757 5753 5750 5746 5743 5740 5737 5733
5742 5754 5754 5752 5773 5778 5782 5790 5791 5788 5801 5813 5811 5812 5814 5816 5818 5818 5819 5818 5816 5814 5811 5808 5805 5802 5796 5792 5787 5782 5775 5771 5768 5764 5761 5757 5754 5750 5746 5742 5738 5735 5732 5728
5736 5735 5722 5763 5786 5785 5782 5787 5793 5796 5802 5806 5807 5811 5816 5818 5815 5815 5816 5815 5814 5813 5810 5807 5804 5799 5794 5789 5783 5777 5771 5768 5765 5761 5757 5753 5750 5745 5741 5738 5733 5729 5725 5722
5727 5725 5736 5756 5769 5773 5769 5772 5786 5787 5792 5799 5805 5805 5807 5813 5814 5813 5813 5813 5813 5812 5809 5805 5801 5796 5791 5785 5780 5774 5769 5765 5762 5758 5754 5749 5745 5741 5737 5733 5729 5724 5720 5716
5717 5715 5721 5747 5765 5773 5766 5758 5779 5781 5782 5788 5791 5787 5798 5808 5808 5807 5808 5809 5809 5808 5805 5800 5797 5793 5787 5783 5778 5773 5769 5763 5759 5755 5750 5745 5741 5737 5733 5729 5724 5720 5714 5710
5709 5713 5733 5751 5760 5760 5741 5751 5770 5774 5777 5780 5781 5786 5795 5799 5799 5799 5800 5802 5803 5801 5798 5794 5792 5788 5782 5778 5774 5771 5766 5759 5754 5750 5745 5741 5736 5732 5728 5723 5718 5714 5709 5704
5705 5706 5720 5743 5748 5743 5746 5758 5763 5766 5771 5773 5776 5781 5786 5788 5789 5791 5792 5794 5795 5793 5791 5789 5787 5783 5777 5772 5770 5766 5760 5754 5748 5744 5741 5737 5731 5726 5722 5717 5712 5707 5703 5698
5711 5716 5727 5737 5738 5742 5747 5749 5753 5758 5763 5767 5769 5772 5775 5777 5780 5783 5785 5787 5788 5786 5783 5782 5780 5778 5772 5768 5764 5760 5754 5749 5744 5739 5735 5731 5726 5721 5717 5713 5711 5706 5701 5696
5702 5713 5719 5726 5731 5735 5739 5742 5748 5752 5756 5759 5760 5763 5765 5767 5770 5773 5775 5778 5779 5777 5774 5773 5773 5771 5768 5763 5758 5753 5748 5743 5737 5733 5728 5724 5720 5718 5714 5710 5707 5702 5698 5693
5695 5704 5710 5717 5722 5726 5731 5736 5741 5745 5748 5750 5752 5754 5756 5758 5761 5763 5766 5768 5770 5768 5765 5764 5763 5761 5760 5756 5752 5746 5740 5736 5731 5728 5724 5718 5714 5710 5707 5703 5700 5696 5693 5689
5691 5698 5703 5707 5714 5720 5722 5726 5731 5734 5737 5742 5744 5746 5749 5751 5754 5755 5756 5758 5759 5758 5757 5755 5753 5751 5750 5748 5745 5740 5734 5730 5727 5724 5718 5713 5706 5699 5691 5690 5685 5682 5679 5677
5688 5694 5698 5701 5707 5711 5714 5718 5723 5726 5728 5731 5736 5739 5741 5742 5745 5746 5747 5748 5749 5749 5749 5748 5745 5742 5741 5740 5737 5733 5729 5725 5722 5718 5713 5708 5703 5696 5688 5678 5673 5670 5667 5664
5680 5683 5686 5692 5697 5703 5707 5710 5714 5718 5722 5724 5728 5731 5732 5733 5735 5736 5737 5739 5741 5741 5741 5739 5736 5734 5733 5732 5729 5726 5723 5718 5715 5711 5707 5703 5698 5694 5688 5682 5675 5666 5657 5652
5673 5678 5682 5687 5691 5695 5699 5702 5705 5708 5712 5715 5719 5721 5722 5723 5724 5726 5728 5730 5730 5730 5731 5730 5727 5726 5725 5723 5721 5719 5717 5713 5709 5705 5701 5697 5693 5689 5685 5679 5673 5665 5657 5646
5667 5673 5677 5680 5683 5687 5691 5694 5697 5701 5704 5707 5709 5712 5714 5715 5717 5718 5719 5720 5719 5720 5721 5721 5719 5718 5716 5715 5713 5711 5708 5703 5700 5698 5694 5690 5687 5683 5678 5672 5666 5660 5654 5647
5658 5663 5668 5671 5675 5679 5683 5687 5690 5693 5696 5699 5701 5703 5705 5706 5707 5708 5709 5711 5712 5713 5713 5712 5712 5710 5709 5708 5707 5705 5700 5694 5690 5689 5687 5684 5680 5676 5671 5666 5660 5653 5648 5642
5657 5662 5665 5667 5669 5672 5676 5680 5684 5686 5689 5692 5694 5695 5696 5698 5698 5699 5701 5703 5705 5705 5705 5705 5705 5703 5702 5701 5699 5698 5694 5689 5686 5683 5680 5676 5673 5669 5664 5659 5654 5648 5641 5634
5653 5657 5660 5662 5663 5666 5669 5673 5677 5680 5682 5685 5685 5686 5688 5689 5691 5692 5694 5695 5695 5695 5696 5697 5694 5696 5694 5692 5691 5689 5687 5683 5679 5675 5672 5666 5664 5661 5657 5653 5648 5642 5636 5630
5648 5651 5654 5656 5658 5661 5664 5668 5670 5672 5675 5676 5677 5677 5678 5680 5683 5684 5685 5686 5689 5690 5690 5689 5688 5688 5687 5685 5683 5682 5679 5675 5672 5668 5664 5661 5657 5653 5649 5645 5640 5635 5629 5624
5641 5644 5647 5650 5653 5655 5658 5661 5663 5665 5667 5668 5669 5669 5671 5673 5676 5677 5677 5677 5678 5680 5681 5679 5680 5681 5680 5678 5674 5674 5670 5667 5664 5660 5657 5653 5649 5645 5641 5637 5632 5627 5623 5618
5634 5638 5641 5644 5647 5649 5652 5654 5656 5659 5661 5662 5663 5664 5665 5666 5668 5668 5669 5670 5671 5670 5673 5674 5674 5673 5672 5669 5668 5666 5663 5660 5657 5653 5649 5645 5641 5637 5633 5630 5626 5622 5617 5614
5627 5630 5634 5638 5640 5643 5645 5648 5649 5651 5652 5654 5655 5657 5659 5660 5663 5662 5662 5663 5665 5663 5666 5666 5664 5662 5660 5661 5660 5658 5655 5652 5649 5646 5642 5639 5635 5631 5628 5624 5621 5617 5612 5608
5621 5623 5627 5631 5634 5635 5636 5639 5641 5643 5644 5646 5648 5650 5652 5653 5654 5656 5657 5654 5655 5656 5657 5655 5652 5651 5650 5654 5653 5650 5647 5645 5642 5639 5635 5632 5629 5626 5622 5619 5615 5611 5606 5602
5616 5618 5621 5624 5626 5627 5629 5631 5633 5635 5637 5639 5641 5643 5646 5648 5649 5650 5651 5650 5647 5647 5648 5645 5642 5642 5644 5646 5644 5642 5640 5639 5636 5633 5629 5626 5622 5619 5617 5613 5609 5605 5601 5598
5611 5613 5616 5619 5622 5623 5626 5627 5629 5631 5632 5633 5635 5636 5638 5639 5640 5642 5643 5643 5643 5640 5642 5641 5639 5636 5638 5638 5637 5635 5632 5630 5627 5625 5623 5620 5617 5614 5611 5607 5602 5599 5596 5592
5607 5609 5611 5614 5616 5619 5622 5623 5624 5625 5627 5627 5628 5629 5631 5632 5634 5636 5636 5636 5636 5636 5636 5636 5635 5634 5633 5632 5630 5628 5625 5623 5621 5619 5617 5614 5611 5608 5604 5600 5597 5593 5589 5586